Thunderstorms From: 20-05-2018 15:00 Until: 21-05-2018 15:00 warning for: Thunderstorms Level: Yellow info button

Although rather usual in this region, locally or potentially dangerous phenomena are expected. (such as local winds, summer thunderstorms, rising streams or high waves) Be aware and pay attention to the latest weather updates, especially if you carry out activities exposed to weather or close to a stream or shoreline. 


Meteo18 Weather Cam more information Meteo18 Weather Cam


warning for Thunderstorms more information blitzortung!


Rain radar more information rain snow radar


Visit our other weather sites:

Template documentation
and downloads

And another site



Weather Underground History page Text

Daily Summary for December 19, 2017 Units:  Metric    English   Both
« Previous Day
Next Day »
Daily Weekly Monthly Yearly Custom
  High: Low: Average:
Temperature: -17.8 °C -16.6 °C -15.4 °C
Dew Point: -17.8 °C -17.1 °C -16.3 °C
Humidity: Humidity % 85 % 90 %
Wind Speed: 0 km/h 0 km/h 5.3 km/h
Wind Gust: 0 km/h - -
Wind:- - SW
Pressure: 0 hPa 34946.9 hPa -
Precipitation: 0 mm    
Historical Graphs
 
 
Tabular Data for December 19, 2017
Time Temperature Dew Point Pressure Wind Wind Speed Wind Gust Humidity Rainfall Rate (Hourly)
-17.8 °C -17.8 °C 0 hPa Calm     Humidity % 0 mm
00:07 -14.7 °C -15.9 °C 34946.9 hPa NNE 10.3 km/h 20.8 km/h 85 % 0 mm
00:12 -14.7 °C -15.9 °C 34946.9 hPa NE 12.9 km/h 20.8 km/h 86 % 0 mm
00:17 -14.7 °C -15.8 °C 34946.9 hPa NE 2.6 km/h 20.8 km/h 87 % 0 mm
00:22 -14.8 °C -15.9 °C 34957.1 hPa East 7.7 km/h 20.8 km/h 87 % 0 mm
00:27 -14.8 °C -15.8 °C 34957.1 hPa North 5.1 km/h 20.8 km/h 88 % 0 mm
00:32 -14.8 °C -15.8 °C 34957.1 hPa NNE 5.1 km/h 20.8 km/h 88 % 0 mm
00:37 -14.8 °C -15.8 °C 34957.1 hPa NNW 5.1 km/h 20.8 km/h 88 % 0 mm
00:42 -14.8 °C -15.8 °C 34957.1 hPa North 5.1 km/h 18.2 km/h 88 % 0 mm
00:47 -14.8 °C -15.8 °C 34957.1 hPa North 7.7 km/h 15.6 km/h 88 % 0 mm
00:52 -14.8 °C -15.8 °C 34957.1 hPa Calm   15.6 km/h 88 % 0 mm
01:02 -14.8 °C -15.8 °C 34957.1 hPa NNW 2.6 km/h 15.6 km/h 88 % 0 mm
01:07 -14.8 °C -15.8 °C 34957.1 hPa NW 5.1 km/h 15.6 km/h 88 % 0 mm
01:12 -14.8 °C -15.9 °C 34967.2 hPa NNW 7.7 km/h 15.6 km/h 87 % 0 mm
01:17 -14.8 °C -15.9 °C 34967.2 hPa NNE 2.6 km/h 12.9 km/h 87 % 0 mm
01:22 -14.8 °C -15.9 °C 34967.2 hPa NNE 7.7 km/h 12.9 km/h 87 % 0 mm
01:32 -14.8 °C -16 °C 34967.2 hPa Calm   12.9 km/h 86 % 0 mm
01:42 -14.8 °C -16 °C 34967.2 hPa NNW 5.1 km/h 10.3 km/h 86 % 0 mm
01:47 -14.8 °C -16 °C 34967.2 hPa NW 2.6 km/h 15.6 km/h 86 % 0 mm
01:52 -14.8 °C -15.9 °C 34967.2 hPa NNW 2.6 km/h 15.6 km/h 87 % 0 mm
01:57 -14.8 °C -15.9 °C 34967.2 hPa NW 5.1 km/h 7.7 km/h 87 % 0 mm
02:02 -14.9 °C -16 °C 34967.2 hPa NW 2.6 km/h 7.7 km/h 87 % 0 mm
02:07 -14.9 °C -16 °C 34980.8 hPa Calm   7.7 km/h 87 % 0 mm
02:12 -14.9 °C -15.9 °C 34967.2 hPa Calm   7.7 km/h 88 % 0 mm
02:17 -14.9 °C -15.9 °C 34980.8 hPa Calm   7.7 km/h 88 % 0 mm
02:22 -14.9 °C -15.9 °C 34980.8 hPa NNW 2.6 km/h 7.7 km/h 88 % 0 mm
02:27 -14.9 °C -15.9 °C 34980.8 hPa NW 5.1 km/h 7.7 km/h 88 % 0 mm
02:32 -14.9 °C -15.9 °C 34980.8 hPa NW 2.6 km/h 7.7 km/h 88 % 0 mm
02:37 -14.9 °C -15.9 °C 34980.8 hPa North 2.6 km/h 7.7 km/h 88 % 0 mm
02:42 -14.9 °C -15.9 °C 34990.9 hPa NNW 5.1 km/h 7.7 km/h 88 % 0 mm
02:47 -14.9 °C -15.9 °C 34990.9 hPa NNE 5.1 km/h 10.3 km/h 88 % 0 mm
02:52 -14.9 °C -15.9 °C 34990.9 hPa North 2.6 km/h 10.3 km/h 88 % 0 mm
02:57 -14.9 °C -15.9 °C 34990.9 hPa NNW 5.1 km/h 10.3 km/h 88 % 0 mm
03:02 -14.9 °C -15.9 °C 34990.9 hPa Calm   10.3 km/h 88 % 0 mm
03:07 -14.9 °C -15.9 °C 34990.9 hPa NNE 2.6 km/h 7.7 km/h 88 % 0 mm
03:12 -14.9 °C -15.9 °C 34990.9 hPa NW 2.6 km/h 7.7 km/h 88 % 0 mm
03:17 -14.9 °C -15.9 °C 34990.9 hPa Calm   7.7 km/h 88 % 0 mm
03:22 -14.9 °C -15.9 °C 34990.9 hPa North 2.6 km/h 7.7 km/h 88 % 0 mm
03:32 -14.9 °C -15.9 °C 34990.9 hPa NNW 5.1 km/h 7.7 km/h 88 % 0 mm
03:37 -14.9 °C -15.9 °C 34990.9 hPa NW 2.6 km/h 5.1 km/h 88 % 0 mm
03:47 -14.9 °C -15.9 °C 34990.9 hPa WNW 5.1 km/h 10.3 km/h 88 % 0 mm
03:52 -14.9 °C -15.9 °C 35001.1 hPa WNW 2.6 km/h 10.3 km/h 88 % 0 mm
03:57 -14.9 °C -15.9 °C 35001.1 hPa WNW 10.3 km/h 12.9 km/h 89 % 0 mm
04:02 -14.9 °C -15.9 °C 35001.1 hPa NW 12.9 km/h 12.9 km/h 89 % 0 mm
04:07 -14.9 °C -15.9 °C 35001.1 hPa WNW 2.6 km/h 18.2 km/h 89 % 0 mm
04:17 -15 °C -15.9 °C 35001.1 hPa NNW 7.7 km/h 18.2 km/h 89 % 0 mm
04:22 -15 °C -15.9 °C 35001.1 hPa WNW 5.1 km/h 18.2 km/h 89 % 0 mm
04:27 -15 °C -15.8 °C 35001.1 hPa NW 2.6 km/h 18.2 km/h 90 % 0 mm
04:37 -15.1 °C -15.9 °C 35001.1 hPa NW 2.6 km/h 15.6 km/h 90 % 0 mm
04:42 -15.1 °C -15.9 °C 35001.1 hPa NNW 2.6 km/h 15.6 km/h 90 % 0 mm
04:47 -15.1 °C -15.9 °C 35001.1 hPa NW 5.1 km/h 15.6 km/h 90 % 0 mm
04:52 -15.1 °C -15.8 °C 35001.1 hPa NNE 5.1 km/h 15.6 km/h 91 % 0 mm
04:57 -15.1 °C -15.8 °C 35001.1 hPa NNW 5.1 km/h 12.9 km/h 91 % 0 mm
05:02 -15.1 °C -15.8 °C 35001.1 hPa NNW 2.6 km/h 12.9 km/h 91 % 0 mm
05:12 -15.1 °C -15.8 °C 35014.6 hPa North 10.3 km/h 12.9 km/h 91 % 0 mm
05:17 -15.1 °C -15.8 °C 35014.6 hPa NNW 2.6 km/h 12.9 km/h 91 % 0 mm
05:22 -15.1 °C -15.8 °C 35014.6 hPa North 2.6 km/h 12.9 km/h 91 % 0 mm
05:32 -15.1 °C -15.8 °C 35001.1 hPa NNW 2.6 km/h 15.6 km/h 92 % 0 mm
05:42 -15.2 °C -15.8 °C 35001.1 hPa Calm   15.6 km/h 92 % 0 mm
05:47 -15.2 °C -15.8 °C 35014.6 hPa NW 2.6 km/h 10.3 km/h 92 % 0 mm
05:52 -15.2 °C -15.8 °C 35014.6 hPa Calm   10.3 km/h 92 % 0 mm
05:57 -15.2 °C -15.8 °C 35014.6 hPa Calm   5.1 km/h 92 % 0 mm
06:02 -15.2 °C -15.8 °C 35014.6 hPa NW 2.6 km/h 5.1 km/h 92 % 0 mm
06:07 -15.2 °C -15.8 °C 35024.8 hPa Calm   7.7 km/h 92 % 0 mm
06:12 -15.2 °C -15.9 °C 35024.8 hPa NW 2.6 km/h 7.7 km/h 92 % 0 mm
06:17 -15.2 °C -15.9 °C 35024.8 hPa NW 2.6 km/h 5.1 km/h 92 % 0 mm
06:22 -15.2 °C -15.9 °C 35014.6 hPa WNW 5.1 km/h 5.1 km/h 92 % 0 mm
06:32 -15.2 °C -15.9 °C 35024.8 hPa Calm   10.3 km/h 92 % 0 mm
06:42 -15.3 °C -15.9 °C 35024.8 hPa Calm   7.7 km/h 92 % 0 mm
06:47 -15.3 °C -15.9 °C 35024.8 hPa Calm   7.7 km/h 92 % 0 mm
06:52 -15.3 °C -15.9 °C 35024.8 hPa Calm   7.7 km/h 92 % 0 mm
07:02 -15.3 °C -16 °C 35014.6 hPa Calm   5.1 km/h 92 % 0 mm
07:07 -15.3 °C -16 °C 35014.6 hPa WNW 2.6 km/h 7.7 km/h 92 % 0 mm
07:12 -15.3 °C -16 °C 35024.8 hPa Calm   7.7 km/h 92 % 0 mm
07:17 -15.3 °C -16 °C 35038.3 hPa Calm   5.1 km/h 92 % 0 mm
07:27 -15.3 °C -16 °C 35038.3 hPa North 2.6 km/h 2.6 km/h 92 % 0 mm
07:32 -15.3 °C -16 °C 35038.3 hPa NW 5.1 km/h 5.1 km/h 92 % 0 mm
07:37 -15.4 °C -16.1 °C 35038.3 hPa Calm   5.1 km/h 92 % 0 mm
07:42 -15.4 °C -16.1 °C 35038.3 hPa NNW 2.6 km/h 5.1 km/h 92 % 0 mm
07:47 -15.4 °C -16.1 °C 35038.3 hPa NW 5.1 km/h 7.7 km/h 92 % 0 mm
07:52 -15.4 °C -16.1 °C 35038.3 hPa North 2.6 km/h 7.7 km/h 92 % 0 mm
08:02 -15.4 °C -16.1 °C 35038.3 hPa Calm   10.3 km/h 92 % 0 mm
08:12 -15.4 °C -16.1 °C 35048.5 hPa NW 5.1 km/h 10.3 km/h 92 % 0 mm
08:17 -15.4 °C -16.1 °C 35048.5 hPa NW 5.1 km/h 10.3 km/h 92 % 0 mm
08:27 -15.4 °C -16.1 °C 35048.5 hPa NNE 7.7 km/h 12.9 km/h 91 % 0 mm
08:32 -15.4 °C -16.2 °C 35058.6 hPa NNW 7.7 km/h 12.9 km/h 91 % 0 mm
08:37 -15.4 °C -16.2 °C 35058.6 hPa NNE 7.7 km/h 18.2 km/h 91 % 0 mm
08:42 -15.4 °C -16.2 °C 35058.6 hPa Calm   18.2 km/h 91 % 0 mm
08:47 -15.4 °C -16.1 °C 35058.6 hPa Calm   12.9 km/h 92 % 0 mm
08:52 -15.4 °C -16.1 °C 35058.6 hPa WNW 12.9 km/h 12.9 km/h 92 % 0 mm
08:57 -15.5 °C -16.2 °C 35058.6 hPa WNW 2.6 km/h 15.6 km/h 92 % 0 mm
09:02 -15.6 °C -16.2 °C 35058.6 hPa NW 7.7 km/h 15.6 km/h 92 % 0 mm
09:12 -15.6 °C -16.3 °C 35072.2 hPa WNW 2.6 km/h 15.6 km/h 92 % 0 mm
09:17 -15.6 °C -16.3 °C 35072.2 hPa NNW 7.7 km/h 10.3 km/h 92 % 0 mm
09:22 -15.7 °C -16.3 °C 35072.2 hPa NW 5.1 km/h 10.3 km/h 92 % 0 mm
09:32 -15.7 °C -16.3 °C 35072.2 hPa NNW 7.7 km/h 15.6 km/h 92 % 0 mm
09:42 -15.7 °C -16.3 °C 35072.2 hPa North 2.6 km/h 15.6 km/h 92 % 0 mm
09:47 -15.7 °C -16.3 °C 35072.2 hPa North 7.7 km/h 15.6 km/h 92 % 0 mm
09:52 -15.6 °C -16.3 °C 35072.2 hPa NNW 2.6 km/h 15.6 km/h 92 % 0 mm
09:57 -15.6 °C -16.3 °C 35082.3 hPa NNE 5.1 km/h 15.6 km/h 92 % 0 mm
10:02 -15.5 °C -16.2 °C 35082.3 hPa NNE 5.1 km/h 15.6 km/h 92 % 0 mm
10:12 -15.4 °C -16.2 °C 35082.3 hPa North 2.6 km/h 10.3 km/h 91 % 0 mm
10:17 -15.4 °C -16.2 °C 35082.3 hPa NNW 7.7 km/h 10.3 km/h 91 % 0 mm
10:22 -15.4 °C -16.2 °C 35082.3 hPa North 12.9 km/h 12.9 km/h 90 % 0 mm
10:32 -15.3 °C -16.3 °C 35095.9 hPa NNW 5.1 km/h 12.9 km/h 88 % 0 mm
10:37 -15.2 °C -16.2 °C 35095.9 hPa NE 5.1 km/h 18.2 km/h 88 % 0 mm
10:42 -15.2 °C -16.2 °C 35095.9 hPa NNE 5.1 km/h 18.2 km/h 88 % 0 mm
10:47 -15.1 °C -16.2 °C 35095.9 hPa NE 5.1 km/h 18.2 km/h 87 % 0 mm
10:52 -15.1 °C -16.2 °C 35106 hPa NE 2.6 km/h 18.2 km/h 87 % 0 mm
10:57 -15.1 °C -16.2 °C 35106 hPa NE 2.6 km/h 15.6 km/h 87 % 0 mm
11:02 -15.1 °C -16.2 °C 35116.2 hPa NNE 18.2 km/h 18.2 km/h 87 % 0 mm
11:12 -15.1 °C -16.1 °C 35116.2 hPa North 20.8 km/h 23.3 km/h 88 % 0 mm
11:17 -15.2 °C -16.2 °C 35116.2 hPa North 10.3 km/h 23.3 km/h 88 % 0 mm
11:22 -15.2 °C -16.2 °C 35116.2 hPa NNE 18.2 km/h 23.3 km/h 89 % 0 mm
11:32 -15.4 °C -16.2 °C 35116.2 hPa WNW 5.1 km/h 28.5 km/h 90 % 0 mm
11:42 -15.4 °C -16.2 °C 35116.2 hPa North 2.6 km/h 28.5 km/h 90 % 0 mm
11:52 -15.2 °C -15.9 °C 35116.2 hPa NNW 5.1 km/h 25.9 km/h 91 % 0 mm
12:02 -15.1 °C -16 °C 35106 hPa NNW 7.7 km/h 23.3 km/h 89 % 0 mm
12:07 -15.1 °C -16 °C 35106 hPa NNE 18.2 km/h 23.3 km/h 89 % 0 mm
12:17 -15.3 °C -16.2 °C 35106 hPa NE 10.3 km/h 25.9 km/h 89 % 0 mm
12:22 -15.3 °C -16.1 °C 35106 hPa North 10.3 km/h 25.9 km/h 90 % 0 mm
12:27 -15.3 °C -16.1 °C 35106 hPa North 12.9 km/h 23.3 km/h 90 % 0 mm
12:32 -15.2 °C -16.1 °C 35095.9 hPa NNE 15.6 km/h 23.3 km/h 90 % 0 mm
12:37 -15.3 °C -16.3 °C 35095.9 hPa WNW 5.1 km/h 28.5 km/h 89 % 0 mm
12:42 -15.3 °C -16.2 °C 35095.9 hPa NNE 5.1 km/h 28.5 km/h 90 % 0 mm
12:47 -15.2 °C -16.1 °C 35095.9 hPa NNE 12.9 km/h 28.5 km/h 90 % 0 mm
12:52 -15.2 °C -16 °C 35095.9 hPa NNE 10.3 km/h 28.5 km/h 90 % 0 mm
13:02 -15.2 °C -16.1 °C 35095.9 hPa North 7.7 km/h 28.5 km/h 89 % 0 mm
13:07 -15.2 °C -16.1 °C 35095.9 hPa NNE 15.6 km/h 28.5 km/h 89 % 0 mm
13:12 -15.1 °C -16.1 °C 35095.9 hPa North 10.3 km/h 28.5 km/h 89 % 0 mm
13:22 -15.2 °C -16.1 °C 35095.9 hPa North 10.3 km/h 25.9 km/h 89 % 0 mm
13:32 -15.1 °C -16.1 °C 35082.3 hPa NNW 2.6 km/h 23.3 km/h 89 % 0 mm
13:37 -15 °C -15.9 °C 35082.3 hPa NE 20.8 km/h 23.3 km/h 89 % 0 mm
13:42 -14.9 °C -15.9 °C 35082.3 hPa WNW 2.6 km/h 23.3 km/h 89 % 0 mm
13:47 -14.9 °C -15.9 °C 35095.9 hPa NNE 5.1 km/h 20.8 km/h 88 % 0 mm
13:57 -14.9 °C -15.9 °C 35082.3 hPa NE 2.6 km/h 18.2 km/h 88 % 0 mm
14:02 -14.9 °C -16.1 °C 35082.3 hPa NE 7.7 km/h 18.2 km/h 87 % 0 mm
14:07 -14.8 °C -15.8 °C 35082.3 hPa NNE 10.3 km/h 25.9 km/h 88 % 0 mm
14:12 -14.8 °C -15.9 °C 35082.3 hPa NNE 7.7 km/h 25.9 km/h 87 % 0 mm
14:17 -14.6 °C -15.7 °C 35082.3 hPa North 7.7 km/h 25.9 km/h 87 % 0 mm
14:22 -14.7 °C -15.8 °C 35082.3 hPa NNE 10.3 km/h 25.9 km/h 87 % 0 mm
14:32 -14.8 °C -15.9 °C 35082.3 hPa North 10.3 km/h 31.1 km/h 87 % 0 mm
14:37 -14.8 °C -15.9 °C 35082.3 hPa NNW 12.9 km/h 18.2 km/h 87 % 0 mm
14:42 -14.8 °C -15.9 °C 35082.3 hPa North 15.6 km/h 18.2 km/h 87 % 0 mm
14:52 -14.9 °C -15.9 °C 35082.3 hPa NNW 5.1 km/h 20.8 km/h 88 % 0 mm
15:02 -14.9 °C -16.1 °C 35082.3 hPa NE 7.7 km/h 23.3 km/h 87 % 0 mm
15:12 -14.9 °C -16.1 °C 35082.3 hPa NNE 2.6 km/h 18.2 km/h 87 % 0 mm
15:17 -15.1 °C -16.2 °C 35082.3 hPa NNE 10.3 km/h 23.3 km/h 87 % 0 mm
15:22 -15.1 °C -16.2 °C 35095.9 hPa NNW 5.1 km/h 23.3 km/h 87 % 0 mm
15:27 -15.2 °C -16.3 °C 35095.9 hPa NNE 2.6 km/h 20.8 km/h 87 % 0 mm
15:32 -15.1 °C -16.2 °C 35095.9 hPa NNE 7.7 km/h 20.8 km/h 87 % 0 mm
15:37 -15.1 °C -16.2 °C 35095.9 hPa NNW 7.7 km/h 18.2 km/h 87 % 0 mm
15:42 -15.1 °C -16.2 °C 35095.9 hPa NNW 5.1 km/h 18.2 km/h 87 % 0 mm
15:47 -15.1 °C -16.2 °C 35095.9 hPa NNE 18.2 km/h 20.8 km/h 87 % 0 mm
15:52 -15.1 °C -16.2 °C 35095.9 hPa North 12.9 km/h 20.8 km/h 87 % 0 mm
16:02 -15.2 °C -16.3 °C 35106 hPa NNW 2.6 km/h 25.9 km/h 87 % 0 mm
16:07 -15.2 °C -16.2 °C 35106 hPa ENE 12.9 km/h 20.8 km/h 88 % 0 mm
16:12 -15.3 °C -16.3 °C 35106 hPa NNE 12.9 km/h 20.8 km/h 88 % 0 mm
16:17 -15.3 °C -16.3 °C 35106 hPa NE 7.7 km/h 23.3 km/h 89 % 0 mm
16:22 -15.4 °C -16.4 °C 35106 hPa NE 18.2 km/h 23.3 km/h 89 % 0 mm
16:32 -15.5 °C -16.4 °C 35106 hPa North 5.1 km/h 23.3 km/h 89 % 0 mm
16:37 -15.5 °C -16.3 °C 35106 hPa NNE 12.9 km/h 20.8 km/h 90 % 0 mm
16:42 -15.6 °C -16.4 °C 35106 hPa North 12.9 km/h 20.8 km/h 90 % 0 mm
16:47 -15.6 °C -16.4 °C 35106 hPa NNE 5.1 km/h 20.8 km/h 90 % 0 mm
16:52 -15.6 °C -16.4 °C 35106 hPa NNW 15.6 km/h 20.8 km/h 90 % 0 mm
17:02 -15.7 °C -16.5 °C 35116.2 hPa NNW 12.9 km/h 18.2 km/h 90 % 0 mm
17:07 -15.7 °C -16.6 °C 35106 hPa NNW 12.9 km/h 23.3 km/h 90 % 0 mm
17:12 -15.7 °C -16.4 °C 35116.2 hPa NNW 7.7 km/h 23.3 km/h 91 % 0 mm
17:17 -15.8 °C -16.5 °C 35116.2 hPa NNW 5.1 km/h 23.3 km/h 91 % 0 mm
17:22 -15.8 °C -16.5 °C 35116.2 hPa NNW 12.9 km/h 23.3 km/h 91 % 0 mm
17:32 -15.9 °C -16.6 °C 35116.2 hPa NW 2.6 km/h 20.8 km/h 91 % 0 mm
17:42 -16 °C -16.7 °C 35116.2 hPa North 7.7 km/h 20.8 km/h 91 % 0 mm
17:47 -16.1 °C -16.8 °C 35116.2 hPa North 7.7 km/h 12.9 km/h 91 % 0 mm
17:52 -16.1 °C -16.8 °C 35116.2 hPa NNW 2.6 km/h 12.9 km/h 92 % 0 mm
18:02 -16.2 °C -16.8 °C 35116.2 hPa NNE 7.7 km/h 12.9 km/h 92 % 0 mm
18:07 -16.2 °C -16.8 °C 35129.8 hPa NNW 5.1 km/h 12.9 km/h 92 % 0 mm
18:12 -16.2 °C -16.9 °C 35129.8 hPa NNW 5.1 km/h 12.9 km/h 92 % 0 mm
18:17 -16.3 °C -16.9 °C 35129.8 hPa NNW 2.6 km/h 12.9 km/h 92 % 0 mm
18:22 -16.3 °C -16.8 °C 35129.8 hPa NNW 2.6 km/h 12.9 km/h 93 % 0 mm
18:27 -16.3 °C -16.8 °C 35129.8 hPa NNW 7.7 km/h 12.9 km/h 93 % 0 mm
18:32 -16.3 °C -16.8 °C 35129.8 hPa North 7.7 km/h 12.9 km/h 93 % 0 mm
18:37 -16.3 °C -16.9 °C 35129.8 hPa North 5.1 km/h 12.9 km/h 93 % 0 mm
18:42 -16.3 °C -16.9 °C 35129.8 hPa NNW 5.1 km/h 18.2 km/h 93 % 0 mm
18:52 -16.3 °C -16.9 °C 35139.9 hPa NNW 5.1 km/h 15.6 km/h 93 % 0 mm
18:57 -16.3 °C -16.9 °C 35129.8 hPa Calm   10.3 km/h 93 % 0 mm
19:02 -16.3 °C -16.8 °C 35139.9 hPa North 5.1 km/h 10.3 km/h 93 % 0 mm
19:12 -16.2 °C -16.8 °C 35129.8 hPa NNW 2.6 km/h 10.3 km/h 93 % 0 mm
19:17 -16.2 °C -16.7 °C 35129.8 hPa North 2.6 km/h 10.3 km/h 93 % 0 mm
19:22 -16.2 °C -16.7 °C 35129.8 hPa Calm   10.3 km/h 93 % 0 mm
19:32 -16.3 °C -16.8 °C 35129.8 hPa NW 2.6 km/h 5.1 km/h 93 % 0 mm
19:37 -16.2 °C -16.8 °C 35129.8 hPa NNW 2.6 km/h 10.3 km/h 93 % 0 mm
19:42 -16.3 °C -16.8 °C 35129.8 hPa North 2.6 km/h 10.3 km/h 93 % 0 mm
19:47 -16.3 °C -16.8 °C 35129.8 hPa NNW 2.6 km/h 10.3 km/h 93 % 0 mm
19:57 -16.3 °C -16.9 °C 35129.8 hPa North 5.1 km/h 7.7 km/h 93 % 0 mm
20:02 -16.3 °C -16.9 °C 35129.8 hPa North 2.6 km/h 7.7 km/h 93 % 0 mm
20:12 -16.3 °C -16.9 °C 35129.8 hPa NNW 7.7 km/h 10.3 km/h 93 % 0 mm
20:17 -16.4 °C -16.9 °C 35129.8 hPa North 5.1 km/h 10.3 km/h 93 % 0 mm
20:22 -16.4 °C -16.9 °C 35129.8 hPa North 2.6 km/h 10.3 km/h 93 % 0 mm
20:27 -16.4 °C -16.9 °C 35129.8 hPa NNW 2.6 km/h 10.3 km/h 93 % 0 mm
20:32 -16.4 °C -17 °C 35129.8 hPa North 5.1 km/h 10.3 km/h 93 % 0 mm
20:42 -16.4 °C -17 °C 35129.8 hPa NW 7.7 km/h 7.7 km/h 93 % 0 mm
20:52 -16.4 °C -17 °C 35129.8 hPa NW 2.6 km/h 7.7 km/h 93 % 0 mm
20:57 -16.4 °C -17 °C 35129.8 hPa NNW 5.1 km/h 7.7 km/h 93 % 0 mm
21:02 -16.4 °C -17 °C 35129.8 hPa NW 5.1 km/h 7.7 km/h 93 % 0 mm
21:07 -16.4 °C -17 °C 35139.9 hPa Calm   10.3 km/h 93 % 0 mm
21:12 -16.4 °C -17 °C 35139.9 hPa NNW 7.7 km/h 10.3 km/h 93 % 0 mm
21:22 -16.4 °C -17 °C 35139.9 hPa Calm   10.3 km/h 93 % 0 mm
21:27 -16.4 °C -17 °C 35139.9 hPa NW 2.6 km/h 10.3 km/h 93 % 0 mm
21:32 -16.5 °C -17.1 °C 35139.9 hPa NNE 5.1 km/h 10.3 km/h 93 % 0 mm
21:37 -16.5 °C -17.1 °C 35139.9 hPa Calm   7.7 km/h 93 % 0 mm
21:42 -16.6 °C -17.1 °C 35139.9 hPa North 7.7 km/h 7.7 km/h 93 % 0 mm
21:52 -16.6 °C -17.1 °C 35129.8 hPa NW 2.6 km/h 10.3 km/h 93 % 0 mm
22:02 -16.6 °C -17.1 °C 35129.8 hPa NNW 2.6 km/h 7.7 km/h 93 % 0 mm
22:12 -16.5 °C -17.1 °C 35129.8 hPa Calm   7.7 km/h 93 % 0 mm
22:17 -16.5 °C -17.1 °C 35129.8 hPa Calm   5.1 km/h 93 % 0 mm
22:22 -16.5 °C -17.1 °C 35129.8 hPa NNW 2.6 km/h 5.1 km/h 93 % 0 mm
22:27 -16.4 °C -17 °C 35129.8 hPa Calm   5.1 km/h 93 % 0 mm
22:32 -16.4 °C -16.9 °C 35129.8 hPa Calm   5.1 km/h 94 % 0 mm
22:42 -16.4 °C -16.9 °C 35129.8 hPa Calm   7.7 km/h 93 % 0 mm
22:47 -16.3 °C -16.9 °C 35129.8 hPa Calm   5.1 km/h 93 % 0 mm
22:52 -16.3 °C -16.9 °C 35129.8 hPa Calm   5.1 km/h 93 % 0 mm
22:57 -16.3 °C -16.9 °C 35129.8 hPa Calm   5.1 km/h 93 % 0 mm
23:02 -16.3 °C -16.8 °C 35129.8 hPa NW 2.6 km/h 5.1 km/h 93 % 0 mm
23:12 -16.2 °C -16.8 °C 35139.9 hPa North 7.7 km/h 7.7 km/h 93 % 0 mm
23:17 -16.2 °C -16.7 °C 35139.9 hPa Calm   12.9 km/h 93 % 0 mm
23:22 -16.2 °C -16.7 °C 35139.9 hPa NE 2.6 km/h 12.9 km/h 93 % 0 mm
23:32 -16.1 °C -16.6 °C 35139.9 hPa North 7.7 km/h 12.9 km/h 93 % 0 mm
23:42 -16.1 °C -16.7 °C 35139.9 hPa North 2.6 km/h 15.6 km/h 92 % 0 mm
23:52 -16 °C -16.7 °C 35150.1 hPa North 2.6 km/h 15.6 km/h 92 % 0 mm
23:57 -16 °C -16.7 °C 35150.1 hPa NNW 2.6 km/h 15.6 km/h 92 % 0 mm
Meteo18
Compliments of Weather Underground - 4 mb

Script developed by  Jim McMurry - jmcmurry@mwt.net Adapted for the template by  Wim van der Kuil - Leuven-Template.eu

You find our weather info also at:

European Weather Network

Weather Underground

Equipment we use:

Weather-station
Davis Vue

Weather-program
Meteobridge

Weather-server
Raspberry PI 2 B+

Provider
1 and 1

Davis Vue

Meteobridge

Raspberry PI 2 B+

1 and 1